Weather History for KMWC - May, 2013

Change the Weather History Date:

Monday, May 6, 2013

  Actual Average Record
Temperature  
Mean Temperature 56 °F -  
Max Temperature 71 °F 65 °F 85 °F (1986)
Min Temperature 42 °F 43 °F 29 °F (1954)
Degree Days  
Heating Degree Days 8    
Growing Degree Days 6 (Base 50)    
Moisture  
Dew Point 35 °F    
Average Humidity 53    
Maximum Humidity 76    
Minimum Humidity 22    
Precipitation  
Precipitation 0.00 in - - ()
Sea Level Pressure  
Sea Level Pressure 30.05 in    
Wind  
Wind Speed 2 mph (NE)    
Max Wind Speed 10 mph    
Max Gust Speed -    
Visibility 10 miles    
Events      
Averages and records for this station are not official NWS values.
T = Trace of Precipitation, MM = Missing Value Source: NWS Daily Summary

Daily Weather History Graph

Daily Weather History Graph

Search for Another Location

Airport or City:

Trip Planner

Search our weather history database for the weather conditions in past years. The results will help you decide how hot, cold, wet, or windy it might be!

Date:

Astronomy

May. 06, 2013 Rise Set
Actual Time 5:38 AM CDT 7:59 PM CDT
Civil Twilight 5:07 AM CDT 8:31 PM CDT
Nautical Twilight 4:27 AM CDT 9:10 PM CDT
Astronomical Twilight 3:44 AM CDT 9:54 PM CDT
Moon 3:45 AM CDT (5/6) 4:54 PM CDT (5/6)
Length of Visible Light 15h 24m
Length of Day
14h 20m
Waning Crescent, 11% of the Moon is Illuminated
May 6
Waning Crescent
May 9
New
May 17
First Quarter
May 24
Full
May 31
Last Quarter

Hourly Weather History & Observations

Time (CDT) Temp. Windchill Dew Point Humidity Pressure Visibility Wind Dir Wind Speed Gust Speed Precip Events Conditions
12:15 AM 50.0 °F - 35.6 °F 58% 30.05 in 10.0 mi Calm Calm - N/A   Clear
12:35 AM 50.0 °F - 35.6 °F 58% 30.05 in 10.0 mi Calm Calm - N/A   Clear
12:55 AM 50.0 °F - 35.6 °F 58% 30.04 in 10.0 mi Calm Calm - N/A   Clear
1:15 AM 48.2 °F - 35.6 °F 62% 30.04 in 10.0 mi Calm Calm - N/A   Clear
1:35 AM 46.4 °F - 35.6 °F 66% 30.04 in 10.0 mi Calm Calm - N/A   Clear
1:55 AM 46.4 °F 45.2 °F 35.6 °F 66% 30.03 in 10.0 mi North 3.5 mph - N/A   Clear
2:15 AM 50.0 °F - 35.6 °F 58% 30.03 in 10.0 mi NNE 4.6 mph - N/A   Clear
2:35 AM 48.2 °F - 33.8 °F 58% 30.03 in 10.0 mi Calm Calm - N/A   Clear
2:55 AM 50.0 °F - 33.8 °F 54% 30.03 in 10.0 mi Calm Calm - N/A   Clear
3:15 AM 48.2 °F - 33.8 °F 58% 30.03 in 10.0 mi Calm Calm - N/A   Clear
3:35 AM 44.6 °F - 35.6 °F 71% 30.03 in 10.0 mi Calm Calm - N/A   Clear
3:55 AM 44.6 °F - 35.6 °F 71% 30.03 in 10.0 mi Calm Calm - N/A   Clear
4:15 AM 44.6 °F - 35.6 °F 71% 30.03 in 10.0 mi Calm Calm - N/A   Clear
4:35 AM 44.6 °F - 35.6 °F 71% 30.03 in 10.0 mi Calm Calm - N/A   Clear
4:55 AM 44.6 °F - 35.6 °F 71% 30.04 in 10.0 mi Calm Calm - N/A   Clear
5:15 AM 44.6 °F - 35.6 °F 71% 30.04 in 10.0 mi Calm Calm - N/A   Clear
5:35 AM 42.8 °F - 35.6 °F 76% 30.05 in 10.0 mi Calm Calm - N/A   Clear
6:15 AM 44.6 °F - 35.6 °F 71% 30.06 in 10.0 mi Calm Calm - N/A   Clear
6:35 AM 44.6 °F - 35.6 °F 71% 30.07 in 10.0 mi Calm Calm - N/A   Clear
6:45 AM 46.4 °F - 37.4 °F 71% 30.07 in 10.0 mi Calm Calm - N/A   Clear
6:55 AM 48.2 °F - 37.4 °F 66% 30.07 in 10.0 mi NE 3.5 mph - N/A   Clear
8:45 AM 55.4 °F - 39.2 °F 54% 30.08 in 10.0 mi NE 6.9 mph - N/A   Mostly Cloudy
9:45 AM 59.0 °F - 35.6 °F 42% 30.09 in 10.0 mi NE 5.8 mph - N/A   Clear
10:45 AM 62.6 °F - 35.6 °F 37% 30.08 in 10.0 mi NE 5.8 mph - N/A   Clear
11:45 AM 64.4 °F - 37.4 °F 37% 30.08 in 10.0 mi NE 5.8 mph - N/A   Clear
12:45 PM 68.0 °F - 33.8 °F 28% 30.06 in 10.0 mi NE 5.8 mph - N/A   Clear
1:45 PM 69.8 °F - 30.2 °F 23% 30.05 in 10.0 mi NE 10.4 mph - N/A   Clear
2:45 PM 69.8 °F - 30.2 °F 23% 30.04 in 10.0 mi East 8.1 mph - N/A   Clear
3:45 PM 71.6 °F - 32.0 °F 23% 30.02 in 10.0 mi NE 9.2 mph - N/A   Clear
4:45 PM 71.6 °F - 30.2 °F 22% 30.01 in 10.0 mi ENE 6.9 mph - N/A   Scattered Clouds
5:45 PM 69.8 °F - 30.2 °F 23% 30.01 in 10.0 mi East 9.2 mph - N/A   Clear
6:45 PM 60.8 °F - 35.6 °F 39% 30.02 in 10.0 mi East 5.8 mph - N/A   Clear
7:45 PM 57.2 °F - 33.8 °F 41% 30.03 in 10.0 mi ESE 5.8 mph - N/A   Clear
8:45 PM 55.4 °F - 33.8 °F 44% 30.04 in 10.0 mi NE 3.5 mph - N/A   Clear
9:15 PM 53.6 °F - 33.8 °F 47% 30.05 in 10.0 mi Calm Calm - N/A   Scattered Clouds
9:55 PM 51.8 °F - 33.8 °F 50% 30.06 in 10.0 mi Calm Calm - N/A   Clear
10:15 PM 51.8 °F - 33.8 °F 50% 30.05 in 10.0 mi Calm Calm - N/A   Clear
10:35 PM 50.0 °F - 33.8 °F 54% 30.05 in 10.0 mi North 3.5 mph - N/A   Clear
10:55 PM 50.0 °F - 33.8 °F 54% 30.05 in 10.0 mi Calm Calm - N/A   Clear
11:15 PM 48.2 °F - 33.8 °F 58% 30.05 in 10.0 mi Calm Calm - N/A   Clear
11:35 PM 48.2 °F - 33.8 °F 58% 30.04 in 10.0 mi Calm Calm - N/A   Clear
11:55 PM 48.2 °F - 35.6 °F 62% 30.04 in 10.0 mi Calm Calm - N/A   Clear